Powrót do katalogu

STARLINK-35407

AktywnyŁącznośćVLEO
NORAD 66334·PAYLOAD·🇺🇸 United States

Wystrzelony Nov 6, 2025 z Cape Canaveral Space Force Station

Loading…

Następne Przeloty (najbliższe 24 godziny)

TLE

ŚwieżeSource: CelesTrak SupGP

Epoka: Sep 15, 2026, 03:35 UTC

1 66334C 25253R   26258.14979167 -.00060185  00000+0 -21805-2 0  2583
2 66334  43.0028 222.2921 0001325 270.9624  60.3596 15.27599624    12

Śledź STARLINK-35407 w czasie rzeczywistym z AllMySat

Download on the App Store